Project,Study,Ord_Occ,Event_Num,Cast_ID,Date_Time_UTC,Date_Time_PST,Lat_Dec,Lon_Dec,Sta_ID,Line,Sta,Depth,Pressure,PrQ,Temp1,Temp1Q,Temp2,Temp2Q,TempAve,Salt1,Salt1Q,Salt1_Corr,Salt2,Salt2Q,Salt2_Corr,SaltAve_Corr,Ox1,Ox1Q,Ox1_CruiseCorr,Ox1_StaCorr,Ox2,Ox2Q,Ox2_CruiseCorr,Ox2_StaCorr,OxAve_StaCorr,Ox1uM,Ox1uM_CruiseCorr,Ox1uM_StaCorr,Ox2uM,Ox2uM_CruiseCorr,Ox2uM_StaCorr,OxAveuM_StaCorr,FluorV,FluorQ,EstChl_CruiseCorr,EstChl_StaCorr,ISUSV,ISUSQ,EstNO3_CruiseCorr,EstNO3_StaCorr,SigThetaTS1,SigThetaTS1Q,SigThetaTS2,SigThetaTS2Q,BAT,XMiss,TransQ,pH,pHQ,SPAR,SPARQ,PAR,PARQ,PoT1,PoT2,DynHt,SVA,OxSat1,OxSat2,BTL_Depth,BTL_Temp,SaltB,OxB,OxBuM,Chl-a,Phaeo,NO3,NO2,NH4,PO4,SIL
CalCOFI,2007SR,028,29,2007_028u,18-Jul-2020 22:59:02,18-Jul-2020 14:59:02,33.25222,-118.24912,090.0 035.0,090.0,035.0,301.000,303.366,,7.9850,,7.9880,,7.9865,34.1772,,34.1774,34.1786,,34.1802,34.1788,1.1739,,1.2089,1.2024,2.6062,,2.2806,2.2031,1.7028,51.068,52.8218,65.6203,113.371,,94.6532,80.1368,0.0337,,,,,,,,26.6343,,26.6350,,0.6475,85.0554,,7.590,,2.1692E+03,,1.6858E-01,,7.9546,7.9575,0.6096,,17.686,39.267,,,,,,,,,,,,
CalCOFI,2007SR,028,29,2007_028u,18-Jul-2020 23:00:13,18-Jul-2020 15:00:13,33.25222,-118.24912,090.0 035.0,090.0,035.0,300.000,302.358,,8.0378,,8.0302,,8.0340,34.1766,,34.1768,34.1785,,34.1801,34.1785,1.1840,,1.2195,1.2130,,,,,,51.507,53.2801,65.9435,,,,,0.0313,,,,,,,,26.6261,,26.6287,,0.6457,85.0928,,7.593,,2.1691E+03,,1.9292E-01,,8.0073,7.9997,0.6133,,17.860,,300,8.038,34.1834,,53.68,,,32.19,0.031,0.24,2.59,47.79
CalCOFI,2007SR,028,29,2007_028u,18-Jul-2020 23:00:18,18-Jul-2020 15:00:18,33.25222,-118.24912,090.0 035.0,090.0,035.0,299.000,301.349,,7.9871,,7.9880,,7.9876,34.1765,,34.1767,34.1785,,34.1801,34.1784,1.1691,,1.2039,1.1973,,,,,,50.857,52.6015,65.4649,,,,,0.0322,,,,,,,,26.6335,,26.6349,,0.6450,85.1069,,7.592,,2.1675E+03,,2.0039E-01,,7.9568,7.9577,0.6131,,17.614,,,,,,,,,,,,,
CalCOFI,2007SR,028,29,2007_028u,18-Jul-2020 23:00:19,18-Jul-2020 15:00:19,33.25222,-118.24912,090.0 035.0,090.0,035.0,298.000,300.340,,8.0049,,8.0021,,8.0035,34.1757,,34.1759,34.1765,,34.1781,34.1770,1.1859,,1.2214,1.2150,,,,,,51.589,53.3657,66.0039,,,,,0.0319,,,,,,,,26.6302,,26.6313,,0.6475,85.0556,,7.591,,2.1666E+03,,1.9476E-01,,7.9746,7.9719,0.6131,,17.875,,,,,,,,,,,,,
CalCOFI,2007SR,028,29,2007_028u,18-Jul-2020 23:00:20,18-Jul-2020 15:00:20,33.25222,-118.24912,090.0 035.0,090.0,035.0,297.000,299.332,,8.0178,,8.0165,,8.0172,34.1781,,34.1783,34.1805,,34.1821,34.1802,1.1874,,1.2230,1.2166,,,,,,51.652,53.4314,66.0503,,,,,0.0311,,,,,,,,26.6302,,26.6323,,0.6474,85.0582,,7.591,,2.1675E+03,,1.8887E-01,,7.9877,7.9863,0.6131,,17.902,,,,,,,,,,,,,
CalCOFI,2007SR,028,29,2007_028u,18-Jul-2020 23:00:21,18-Jul-2020 15:00:21,33.25222,-118.24912,090.0 035.0,090.0,035.0,296.000,298.323,,8.0245,,8.0262,,8.0254,34.1771,,34.1773,34.1787,,34.1803,34.1788,1.1852,,1.2207,1.2143,,,,,,51.559,53.3343,65.9818,,,,,0.0321,,,,,,,,26.6284,,26.6294,,0.6515,84.9691,,7.591,,2.1690E+03,,1.9125E-01,,7.9944,7.9961,0.6131,,17.872,,,,,,,,,,,,,
CalCOFI,2007SR,028,29,2007_028u,18-Jul-2020 23:00:22,18-Jul-2020 15:00:22,33.25222,-118.24912,090.0 035.0,090.0,035.0,295.000,297.315,,8.0295,,8.0294,,8.0295,34.1775,,34.1777,34.1784,,34.1800,34.1789,1.1834,,1.2188,1.2124,,,,,,51.478,53.2498,65.9222,,,,,0.0325,,,,,,,,26.6279,,26.6286,,0.6483,85.0381,,7.591,,2.1674E+03,,1.9258E-01,,7.9996,7.9995,0.6131,,17.846,,,,,,,,,,,,,
CalCOFI,2007SR,028,29,2007_028u,18-Jul-2020 23:00:23,18-Jul-2020 15:00:23,33.25222,-118.24912,090.0 035.0,090.0,035.0,294.000,296.306,,8.0209,,8.0215,,8.0212,34.1779,,34.1781,34.1797,,34.1813,34.1797,1.1934,,1.2293,1.2229,,,,,,51.912,53.7028,66.2418,,,,,0.0312,,,,,,,,26.6295,,26.6308,,0.6489,85.0266,,7.591,,2.1687E+03,,1.8696E-01,,7.9910,7.9916,0.6131,,17.994,,,,,,,,,,,,,
CalCOFI,2007SR,028,29,2007_028u,18-Jul-2020 23:00:24,18-Jul-2020 15:00:24,33.25222,-118.24912,090.0 035.0,090.0,035.0,293.000,295.298,,8.0219,,8.0217,,8.0218,34.1781,,34.1783,34.1795,,34.1811,34.1797,1.1934,,1.2293,1.2229,,,,,,51.916,53.7070,66.2447,,,,,0.0318,,,,,,,,26.6295,,26.6306,,0.6492,85.0198,,7.591,,2.1676E+03,,1.8176E-01,,7.9921,7.9919,0.6131,,17.995,,,,,,,,,,,,,
CalCOFI,2007SR,028,29,2007_028u,18-Jul-2020 23:00:25,18-Jul-2020 15:00:25,33.25222,-118.24912,090.0 035.0,090.0,035.0,292.000,294.289,,8.0284,,8.0285,,8.0285,34.1772,,34.1774,34.1788,,34.1804,34.1789,1.1974,,1.2335,1.2271,,,,,,52.088,53.8866,66.3714,,,,,0.0309,,,,,,,,26.6278,,26.6290,,0.6466,85.0748,,7.591,,2.1669E+03,,1.7746E-01,,7.9987,7.9989,0.6131,,18.057,,,,,,,,,,,,,
CalCOFI,2007SR,028,29,2007_028u,18-Jul-2020 23:00:26,18-Jul-2020 15:00:26,33.25222,-118.24912,090.0 035.0,090.0,035.0,291.000,293.281,,8.0323,,8.0323,,8.0323,34.1770,,34.1772,34.1784,,34.1800,34.1786,1.2084,,1.2450,1.2386,,,,,,52.568,54.3876,66.7248,,,,,0.0326,,,,,,,,26.6271,,26.6281,,0.6458,85.0900,,7.591,,2.1656E+03,,1.7562E-01,,8.0028,8.0027,0.6131,,18.225,,,,,,,,,,,,,
CalCOFI,2007SR,028,29,2007_028u,18-Jul-2020 23:00:27,18-Jul-2020 15:00:27,33.25222,-118.24912,090.0 035.0,090.0,035.0,290.000,292.272,,8.0328,,8.0332,,8.0330,34.1773,,34.1775,34.1789,,34.1805,34.1790,1.2165,,1.2534,1.2472,,,,,,52.918,54.7530,66.9826,,,,,0.0314,,,,,,,,26.6272,,26.6284,,0.6458,85.0899,,7.591,,2.1659E+03,,1.7384E-01,,8.0034,8.0037,0.6131,,18.347,,,,,,,,,,,,,
CalCOFI,2007SR,028,29,2007_028u,18-Jul-2020 23:00:28,18-Jul-2020 15:00:28,33.25222,-118.24912,090.0 035.0,090.0,035.0,289.000,291.263,,8.0630,,8.0648,,8.0639,34.1784,,34.1786,34.1810,,34.1826,34.1806,1.2221,,1.2593,1.2530,,,,,,53.164,55.0098,67.1637,,,,,0.0306,,,,,,,,26.6236,,26.6254,,0.6461,85.0841,,7.591,,2.1661E+03,,1.7689E-01,,8.0336,8.0354,0.6131,,18.445,,,,,,,,,,,,,
CalCOFI,2007SR,028,29,2007_028u,18-Jul-2020 23:00:29,18-Jul-2020 15:00:29,33.25222,-118.24912,090.0 035.0,090.0,035.0,288.000,290.255,,8.0876,,8.0876,,8.0876,34.1753,,34.1755,34.1762,,34.1778,34.1767,1.2359,,1.2737,1.2676,,,,,,53.765,55.6372,67.6063,,,,,0.0314,,,,,,,,26.6175,,26.6182,,0.6477,85.0497,,7.591,,2.1669E+03,,1.7249E-01,,8.0582,8.0582,0.6131,,18.663,,,,,,,,,,,,,
CalCOFI,2007SR,028,29,2007_028u,18-Jul-2020 23:00:30,18-Jul-2020 15:00:30,33.25222,-118.24912,090.0 035.0,090.0,035.0,287.000,289.246,,8.0818,,8.0804,,8.0811,34.1775,,34.1777,34.1792,,34.1808,34.1793,1.2454,,1.2836,1.2775,,,,,,54.178,56.0683,67.9104,,,,,0.0317,,,,,,,,26.6201,,26.6216,,0.6458,85.0909,,7.592,,2.1652E+03,,1.6558E-01,,8.0526,8.0511,0.6131,,18.804,,,,,,,,,,,,,
CalCOFI,2007SR,028,29,2007_028u,18-Jul-2020 23:00:31,18-Jul-2020 15:00:31,33.25222,-118.24912,090.0 035.0,090.0,035.0,286.000,288.238,,8.1025,,8.1087,,8.1056,34.1755,,34.1757,34.1770,,34.1786,34.1772,1.2490,,1.2874,1.2813,,,,,,54.333,56.2301,68.0245,,,,,0.0317,,,,,,,,26.6154,,26.6156,,0.6442,85.1244,,7.593,,2.1668E+03,,1.5944E-01,,8.0733,8.0795,0.6131,,18.866,,,,,,,,,,,,,
CalCOFI,2007SR,028,29,2007_028u,18-Jul-2020 23:00:32,18-Jul-2020 15:00:32,33.25222,-118.24912,090.0 035.0,090.0,035.0,285.000,287.229,,8.1229,,8.1236,,8.1233,34.1723,,34.1725,34.1735,,34.1751,34.1738,1.2481,,1.2864,1.2804,,,,,,54.297,56.1925,67.9980,,,,,0.0323,,,,,,,,26.6098,,26.6107,,0.6446,85.1165,,7.593,,2.1672E+03,,1.5309E-01,,8.0937,8.0945,0.6131,,18.862,,,,,,,,,,,,,
CalCOFI,2007SR,028,29,2007_028u,18-Jul-2020 23:00:33,18-Jul-2020 15:00:33,33.25222,-118.24912,090.0 035.0,090.0,035.0,284.000,286.221,,8.1122,,8.1137,,8.1130,34.1732,,34.1734,34.1744,,34.1760,34.1747,1.2541,,1.2927,1.2867,,,,,,54.556,56.4629,68.1887,,,,,0.0317,,,,,,,,26.6121,,26.6128,,0.6441,85.1262,,7.594,,2.1690E+03,,1.5272E-01,,8.0832,8.0847,0.6131,,18.948,,,,,,,,,,,,,
CalCOFI,2007SR,028,29,2007_028u,18-Jul-2020 23:00:35,18-Jul-2020 15:00:35,33.25222,-118.24912,090.0 035.0,090.0,035.0,283.000,285.212,,8.1188,,8.1191,,8.1190,34.1726,,34.1728,34.1739,,34.1755,34.1742,1.2568,,1.2955,1.2895,,,,,,54.673,56.5850,68.2749,,,,,0.0317,,,,,,,,26.6107,,26.6116,,0.6450,85.1078,,7.595,,2.1671E+03,,1.5315E-01,,8.0899,8.0902,0.6131,,18.991,,,,,,,,,,,,,
CalCOFI,2007SR,028,29,2007_028u,18-Jul-2020 23:00:36,18-Jul-2020 15:00:36,33.25222,-118.24912,090.0 035.0,090.0,035.0,282.000,284.204,,8.1152,,8.1154,,8.1153,34.1709,,34.1711,34.1725,,34.1741,34.1726,1.2577,,1.2965,1.2905,,,,,,54.715,56.6289,68.3058,,,,,0.0310,,,,,,,,26.6098,,26.6110,,0.6453,85.1017,,7.595,,2.1667E+03,,1.5852E-01,,8.0864,8.0866,0.6131,,19.004,,,,,,,,,,,,,
CalCOFI,2007SR,028,29,2007_028u,18-Jul-2020 23:00:37,18-Jul-2020 15:00:37,33.25222,-118.24912,090.0 035.0,090.0,035.0,281.000,283.195,,8.1266,,8.1270,,8.1268,34.1719,,34.1721,34.1735,,34.1751,34.1736,1.2595,,1.2984,1.2924,,,,,,54.792,56.7093,68.3625,,,,,0.0320,,,,,,,,26.6089,,26.6101,,0.6443,85.1226,,7.595,,2.1652E+03,,1.4297E-01,,8.0978,8.0982,0.6131,,19.036,,,,,,,,,,,,,
CalCOFI,2007SR,028,29,2007_028u,18-Jul-2020 23:00:38,18-Jul-2020 15:00:38,33.25222,-118.24912,090.0 035.0,090.0,035.0,280.000,282.187,,8.1325,,8.1316,,8.1321,34.1710,,34.1712,34.1719,,34.1735,34.1724,1.2619,,1.3009,1.2949,,,,,,54.895,56.8168,68.4383,,,,,0.0315,,,,,,,,26.6073,,26.6081,,0.6451,85.1067,,7.595,,2.1652E+03,,1.4942E-01,,8.1038,8.1030,0.6131,,19.074,,,,,,,,,,,,,
CalCOFI,2007SR,028,29,2007_028u,18-Jul-2020 23:00:39,18-Jul-2020 15:00:39,33.25222,-118.24912,090.0 035.0,090.0,035.0,279.000,281.178,,8.1243,,8.1249,,8.1246,34.1704,,34.1706,34.1720,,34.1736,34.1721,1.2656,,1.3047,1.2988,,,,,,55.056,56.9849,68.5569,,,,,0.0319,,,,,,,,26.6080,,26.6092,,0.6456,85.0954,,7.595,,2.1652E+03,,1.4267E-01,,8.0958,8.0963,0.6131,,19.126,,,,,,,,,,,,,
CalCOFI,2007SR,028,29,2007_028u,18-Jul-2020 23:00:40,18-Jul-2020 15:00:40,33.25222,-118.24912,090.0 035.0,090.0,035.0,278.000,280.170,,8.1214,,8.1224,,8.1219,34.1701,,34.1703,34.1711,,34.1727,34.1715,1.2674,,1.3066,1.3007,,,,,,55.134,57.0663,68.6143,,,,,0.0414,,,,,,,,26.6082,,26.6089,,0.6446,85.1164,,7.595,,2.1661E+03,,1.3624E-01,,8.0930,8.0939,0.6131,,19.152,,,,,,,,,,,,,
CalCOFI,2007SR,028,29,2007_028u,18-Jul-2020 23:00:40,18-Jul-2020 15:00:40,33.25222,-118.24912,090.0 035.0,090.0,035.0,277.000,279.161,,8.1225,,8.1225,,8.1225,34.1690,,34.1692,34.1700,,34.1716,34.1704,1.2639,,1.3029,1.2970,,,,,,54.983,56.9087,68.5031,,,,,0.0342,,,,,,,,26.6071,,26.6080,,0.6434,85.1414,,7.595,,2.1671E+03,,1.3853E-01,,8.0941,8.0942,0.6131,,19.100,,,,,,,,,,,,,
CalCOFI,2007SR,028,29,2007_028u,18-Jul-2020 23:00:42,18-Jul-2020 15:00:42,33.25222,-118.24912,090.0 035.0,090.0,035.0,276.000,278.153,,8.1247,,8.1250,,8.1249,34.1695,,34.1697,34.1710,,34.1726,34.1712,1.2547,,1.2933,1.2873,,,,,,54.583,56.4911,68.2086,,,,,0.0332,,,,,,,,26.6072,,26.6084,,0.6435,85.1400,,7.596,,2.1671E+03,,1.4265E-01,,8.0965,8.0968,0.6131,,18.962,,,,,,,,,,,,,
CalCOFI,2007SR,028,29,2007_028u,18-Jul-2020 23:00:43,18-Jul-2020 15:00:43,33.25222,-118.24912,090.0 035.0,090.0,035.0,275.000,277.144,,8.1308,,8.1306,,8.1307,34.1708,,34.1710,34.1721,,34.1737,34.1724,1.2491,,1.2875,1.2814,,,,,,54.339,56.2364,68.0289,,,,,0.0316,,,,,,,,26.6073,,26.6084,,0.6433,85.1437,,7.596,,2.1682E+03,,1.3654E-01,,8.1027,8.1025,0.6131,,18.880,,,,,,,,,,,,,
CalCOFI,2007SR,028,29,2007_028u,18-Jul-2020 23:00:44,18-Jul-2020 15:00:44,33.25222,-118.24912,090.0 035.0,090.0,035.0,274.000,276.136,,8.1501,,8.1495,,8.1498,34.1746,,34.1748,34.1763,,34.1779,34.1764,1.2498,,1.2882,1.2822,,,,,,54.371,56.2698,68.0525,,,,,0.0319,,,,,,,,26.6074,,26.6089,,0.6428,85.1533,,7.597,,2.1682E+03,,1.4047E-01,,8.1220,8.1214,0.6131,,18.900,,,,,,,,,,,,,
CalCOFI,2007SR,028,29,2007_028u,18-Jul-2020 23:00:45,18-Jul-2020 15:00:45,33.25222,-118.24912,090.0 035.0,090.0,035.0,273.000,275.127,,8.1558,,8.1566,,8.1562,34.1751,,34.1753,34.1766,,34.1782,34.1768,1.2493,,1.2877,1.2816,,,,,,54.349,56.2468,68.0363,,,,,0.0315,,,,,,,,26.6069,,26.6080,,0.6431,85.1476,,7.598,,2.1679E+03,,1.3907E-01,,8.1278,8.1286,0.6131,,18.895,,,,,,,,,,,,,
CalCOFI,2007SR,028,29,2007_028u,18-Jul-2020 23:00:47,18-Jul-2020 15:00:47,33.25222,-118.24912,090.0 035.0,090.0,035.0,272.000,274.119,,8.1559,,8.1566,,8.1563,34.1754,,34.1756,34.1768,,34.1784,34.1770,1.2451,,1.2833,1.2772,,,,,,54.164,56.0537,67.9001,,,,,0.0318,,,,,,,,26.6071,,26.6081,,0.6422,85.1661,,7.600,,2.1666E+03,,1.4232E-01,,8.1280,8.1287,0.6131,,18.830,,,,,,,,,,,,,
CalCOFI,2007SR,028,29,2007_028u,18-Jul-2020 23:00:50,18-Jul-2020 15:00:50,33.25222,-118.24912,090.0 035.0,090.0,035.0,271.000,273.110,,8.1562,,8.1571,,8.1567,34.1754,,34.1756,34.1769,,34.1785,34.1771,1.2506,,1.2891,1.2830,,,,,,54.404,56.3042,68.0768,,,,,0.0316,,,,,,,,26.6071,,26.6081,,0.6422,85.1664,,7.600,,2.1677E+03,,1.3784E-01,,8.1285,8.1294,0.6131,,18.914,,271,8.156,34.1775,1.270,55.42,,,31.68,0.029,0.10,2.54,46.20
CalCOFI,2007SR,028,29,2007_028u,18-Jul-2020 23:01:57,18-Jul-2020 15:01:57,33.25222,-118.24912,090.0 035.0,090.0,035.0,270.000,272.102,,8.1521,,8.1505,,8.1513,34.1750,,34.1752,34.1761,,34.1777,34.1765,1.2471,,1.2854,1.2793,,,,,,54.253,56.1466,67.9656,,,,,0.0320,,,,,,,,26.6073,,26.6084,,0.6425,85.1618,,7.606,,2.1667E+03,,2.2419E-01,,8.1244,8.1229,0.6151,,18.859,,,,,,,,,,,,,
CalCOFI,2007SR,028,29,2007_028u,18-Jul-2020 23:02:02,18-Jul-2020 15:02:02,33.25222,-118.24912,090.0 035.0,090.0,035.0,269.000,271.094,,8.1506,,8.1526,,8.1516,34.1745,,34.1747,34.1761,,34.1777,34.1762,1.2506,,1.2891,1.2830,,,,,,54.405,56.3053,68.0775,,,,,0.0319,,,,,,,,26.6072,,26.6081,,0.6437,85.1351,,7.605,,2.1675E+03,,2.0872E-01,,8.1230,8.1251,0.6156,,18.912,,,,,,,,,,,,,
CalCOFI,2007SR,028,29,2007_028u,18-Jul-2020 23:02:03,18-Jul-2020 15:02:03,33.25222,-118.24912,090.0 035.0,090.0,035.0,268.000,270.085,,8.1513,,8.1520,,8.1517,34.1746,,34.1748,34.1759,,34.1775,34.1762,1.2463,,1.2846,1.2785,,,,,,54.215,56.1069,67.9376,,,,,0.0318,,,,,,,,26.6071,,26.6081,,0.6454,85.0998,,7.605,,2.1663E+03,,2.0974E-01,,8.1239,8.1245,0.6156,,18.846,,,,,,,,,,,,,
CalCOFI,2007SR,028,29,2007_028u,18-Jul-2020 23:02:04,18-Jul-2020 15:02:04,33.25222,-118.24912,090.0 035.0,090.0,035.0,267.000,269.077,,8.1522,,8.1524,,8.1523,34.1749,,34.1751,34.1763,,34.1779,34.1765,1.2462,,1.2845,1.2784,,,,,,54.214,56.1059,67.9369,,,,,0.0309,,,,,,,,26.6072,,26.6082,,0.6434,85.1405,,7.605,,2.1648E+03,,2.0219E-01,,8.1248,8.1250,0.6156,,18.846,,,,,,,,,,,,,
CalCOFI,2007SR,028,29,2007_028u,18-Jul-2020 23:02:05,18-Jul-2020 15:02:05,33.25222,-118.24912,090.0 035.0,090.0,035.0,266.000,268.068,,8.1547,,8.1553,,8.1550,34.1754,,34.1756,34.1768,,34.1784,34.1770,1.2465,,1.2848,1.2787,,,,,,54.226,56.1184,67.9457,,,,,0.0317,,,,,,,,26.6072,,26.6082,,0.6421,85.1683,,7.605,,2.1645E+03,,2.0147E-01,,8.1275,8.1280,0.6156,,18.851,,,,,,,,,,,,,
CalCOFI,2007SR,028,29,2007_028u,18-Jul-2020 23:02:07,18-Jul-2020 15:02:07,33.25222,-118.24912,090.0 035.0,090.0,035.0,265.000,267.060,,8.1565,,8.1569,,8.1567,34.1757,,34.1759,34.1770,,34.1786,34.1773,1.2476,,1.2859,1.2799,,,,,,54.272,56.1664,67.9796,,,,,0.0318,,,,,,,,26.6072,,26.6081,,0.6423,85.1643,,7.605,,2.1648E+03,,2.0391E-01,,8.1293,8.1298,0.6156,,18.868,,,,,,,,,,,,,
CalCOFI,2007SR,028,29,2007_028u,18-Jul-2020 23:02:08,18-Jul-2020 15:02:08,33.25222,-118.24912,090.0 035.0,090.0,035.0,264.000,266.051,,8.1546,,8.1555,,8.1551,34.1755,,34.1757,34.1768,,34.1784,34.1771,1.2482,,1.2865,1.2805,,,,,,54.302,56.1978,68.0017,,,,,0.0317,,,,,,,,26.6072,,26.6082,,0.6426,85.1592,,7.605,,2.1652E+03,,2.0296E-01,,8.1276,8.1284,0.6156,,18.878,,,,,,,,,,,,,
CalCOFI,2007SR,028,29,2007_028u,18-Jul-2020 23:02:09,18-Jul-2020 15:02:09,33.25222,-118.24912,090.0 035.0,090.0,035.0,263.000,265.043,,8.1539,,8.1541,,8.1540,34.1754,,34.1756,34.1763,,34.1779,34.1768,1.2450,,1.2832,1.2771,,,,,,54.159,56.0485,67.8964,,,,,0.0308,,,,,,,,26.6072,,26.6079,,0.6421,85.1685,,7.605,,2.1670E+03,,1.9846E-01,,8.1270,8.1272,0.6156,,18.828,,,,,,,,,,,,,
CalCOFI,2007SR,028,29,2007_028u,18-Jul-2020 23:02:10,18-Jul-2020 15:02:10,33.25222,-118.24912,090.0 035.0,090.0,035.0,262.000,264.035,,8.1531,,8.1534,,8.1533,34.1752,,34.1754,34.1764,,34.1780,34.1767,1.2462,,1.2845,1.2784,,,,,,54.211,56.1028,67.9347,,,,,0.0322,,,,,,,,26.6072,,26.6081,,0.6416,85.1805,,7.605,,2.1671E+03,,1.9225E-01,,8.1263,8.1266,0.6156,,18.845,,,,,,,,,,,,,
CalCOFI,2007SR,028,29,2007_028u,18-Jul-2020 23:02:11,18-Jul-2020 15:02:11,33.25222,-118.24912,090.0 035.0,090.0,035.0,261.000,263.026,,8.1531,,8.1534,,8.1533,34.1753,,34.1755,34.1764,,34.1780,34.1768,1.2478,,1.2861,1.2801,,,,,,54.282,56.1769,67.9870,,,,,0.0316,,,,,,,,26.6073,,26.6081,,0.6427,85.1558,,7.605,,2.1677E+03,,1.8869E-01,,8.1264,8.1267,0.6156,,18.870,,,,,,,,,,,,,
CalCOFI,2007SR,028,29,2007_028u,18-Jul-2020 23:02:12,18-Jul-2020 15:02:12,33.25222,-118.24912,090.0 035.0,090.0,035.0,260.000,262.018,,8.1538,,8.1542,,8.1540,34.1755,,34.1757,34.1766,,34.1782,34.1770,1.2483,,1.2866,1.2806,,,,,,54.303,56.1988,68.0024,,,,,0.0317,,,,,,,,26.6073,,26.6081,,0.6420,85.1716,,7.605,,2.1662E+03,,1.8938E-01,,8.1272,8.1276,0.6156,,18.878,,,,,,,,,,,,,
CalCOFI,2007SR,028,29,2007_028u,18-Jul-2020 23:02:13,18-Jul-2020 15:02:13,33.25222,-118.24912,090.0 035.0,090.0,035.0,259.000,261.009,,8.1543,,8.1548,,8.1546,34.1753,,34.1755,34.1764,,34.1780,34.1768,1.2496,,1.2880,1.2820,2.3516,,1.6728,1.3655,1.3238,54.360,56.2583,68.0444,102.300,,68.2551,68.1498,0.0320,,,,,,,,26.6071,,26.6079,,0.6423,85.1646,,7.605,,2.1652E+03,,1.9008E-01,,8.1278,8.1283,0.6156,,18.898,35.564,,,,,,,,,,,,
CalCOFI,2007SR,028,29,2007_028u,18-Jul-2020 23:02:14,18-Jul-2020 15:02:14,33.25222,-118.24912,090.0 035.0,090.0,035.0,258.000,260.001,,8.1557,,8.1562,,8.1560,34.1754,,34.1756,34.1766,,34.1782,34.1769,1.2493,,1.2877,1.2816,2.3542,,1.6790,1.3741,1.3279,54.349,56.2468,68.0363,102.413,,68.5246,68.2805,0.0316,,,,,,,,26.6069,,26.6078,,0.6424,85.1625,,7.605,,2.1652E+03,,1.8497E-01,,8.1293,8.1298,0.6156,,18.895,35.605,,,,,,,,,,,,
CalCOFI,2007SR,028,29,2007_028u,18-Jul-2020 23:02:15,18-Jul-2020 15:02:15,33.25222,-118.24912,090.0 035.0,090.0,035.0,257.000,258.993,,8.1583,,8.1584,,8.1584,34.1753,,34.1755,34.1765,,34.1781,34.1768,1.2498,,1.2882,1.2822,2.3497,,1.6682,1.3593,1.3208,54.368,56.2667,68.0503,102.219,,68.0620,68.0562,0.0311,,,,,,,,26.6064,,26.6074,,0.6426,85.1579,,7.605,,2.1660E+03,,1.8978E-01,,8.1320,8.1321,0.6156,,18.902,35.539,,,,,,,,,,,,
CalCOFI,2007SR,028,29,2007_028u,18-Jul-2020 23:02:16,18-Jul-2020 15:02:16,33.25222,-118.24912,090.0 035.0,090.0,035.0,256.000,257.984,,8.1578,,8.1581,,8.1580,34.1752,,34.1754,34.1764,,34.1780,34.1767,1.2485,,1.2869,1.2808,2.3520,,1.6737,1.3668,1.3238,54.313,56.2092,68.0098,102.320,,68.3028,68.1563,0.0306,,,,,,,,26.6064,,26.6073,,0.6443,85.1220,,7.605,,2.1656E+03,,1.8918E-01,,8.1316,8.1319,0.6156,,18.883,35.574,,,,,,,,,,,,
CalCOFI,2007SR,028,29,2007_028u,18-Jul-2020 23:02:17,18-Jul-2020 15:02:17,33.25222,-118.24912,090.0 035.0,090.0,035.0,255.000,256.976,,8.1576,,8.1580,,8.1578,34.1753,,34.1755,34.1763,,34.1779,34.1767,1.2513,,1.2898,1.2837,2.3517,,1.6730,1.3658,1.3248,54.434,56.3356,68.0989,102.306,,68.2694,68.1842,0.0315,,,,,,,,26.6065,,26.6073,,0.6437,85.1353,,7.605,,2.1652E+03,,1.8821E-01,,8.1315,8.1319,0.6156,,18.925,35.569,,,,,,,,,,,,
CalCOFI,2007SR,028,29,2007_028u,18-Jul-2020 23:02:18,18-Jul-2020 15:02:18,33.25222,-118.24912,090.0 035.0,090.0,035.0,254.000,255.967,,8.1570,,8.1572,,8.1571,34.1752,,34.1754,34.1762,,34.1778,34.1766,1.2558,,1.2945,1.2885,2.3508,,1.6709,1.3629,1.3257,54.632,56.5422,68.2447,102.264,,68.1693,68.2070,0.0308,,,,,,,,26.6065,,26.6073,,0.6419,85.1736,,7.605,,2.1656E+03,,1.8334E-01,,8.1310,8.1312,0.6156,,18.994,35.554,,,,,,,,,,,,
CalCOFI,2007SR,028,29,2007_028u,18-Jul-2020 23:02:19,18-Jul-2020 15:02:19,33.25222,-118.24912,090.0 035.0,090.0,035.0,253.000,254.959,,8.1549,,8.1554,,8.1552,34.1746,,34.1748,34.1757,,34.1773,34.1761,1.2529,,1.2915,1.2854,2.3443,,1.6553,1.3415,1.3135,54.504,56.4086,68.1504,101.982,,67.4969,67.8237,0.0312,,,,,,,,26.6063,,26.6071,,0.6425,85.1605,,7.605,,2.1668E+03,,1.8152E-01,,8.1290,8.1295,0.6156,,18.948,35.454,,,,,,,,,,,,
CalCOFI,2007SR,028,29,2007_028u,18-Jul-2020 23:02:20,18-Jul-2020 15:02:20,33.25222,-118.24912,090.0 035.0,090.0,035.0,252.000,253.951,,8.1535,,8.1539,,8.1537,34.1742,,34.1744,34.1754,,34.1770,34.1757,1.2561,,1.2948,1.2888,2.3425,,1.6511,1.3356,1.3122,54.642,56.5527,68.2520,101.906,,67.3156,67.7838,0.0317,,,,,,,,26.6062,,26.6071,,0.6425,85.1606,,7.605,,2.1668E+03,,1.8226E-01,,8.1278,8.1281,0.6156,,18.995,35.426,,,,,,,,,,,,
CalCOFI,2007SR,028,29,2007_028u,18-Jul-2020 23:02:21,18-Jul-2020 15:02:21,33.25222,-118.24912,090.0 035.0,090.0,035.0,251.000,252.942,,8.1590,,8.1611,,8.1601,34.1749,,34.1751,34.1767,,34.1783,34.1767,1.2575,,1.2963,1.2903,2.3457,,1.6587,1.3461,1.3182,54.705,56.6184,68.2984,102.043,,67.6423,67.9704,0.0318,,,,,,,,26.6059,,26.6071,,0.6428,85.1539,,7.605,,2.1664E+03,,1.7318E-01,,8.1333,8.1354,0.6156,,19.020,35.480,,,,,,,,,,,,
CalCOFI,2007SR,028,29,2007_028u,18-Jul-2020 23:02:22,18-Jul-2020 15:02:22,33.25222,-118.24912,090.0 035.0,090.0,035.0,250.000,251.934,,8.1946,,8.1960,,8.1953,34.1786,,34.1788,34.1804,,34.1820,34.1804,1.2592,,1.2980,1.2920,2.3425,,1.6511,1.3356,1.3138,54.778,56.6947,68.3522,101.903,,67.3085,67.8304,0.0312,,,,,,,,26.6035,,26.6047,,0.6425,85.1601,,7.605,,2.1667E+03,,1.7077E-01,,8.1690,8.1704,0.6156,,19.061,35.460,,,,,,,,,,,,
CalCOFI,2007SR,028,29,2007_028u,18-Jul-2020 23:02:23,18-Jul-2020 15:02:23,33.25222,-118.24912,090.0 035.0,090.0,035.0,249.000,250.926,,8.2097,,8.2112,,8.2105,34.1784,,34.1786,34.1798,,34.1814,34.1800,1.2700,,1.3093,1.3034,2.3381,,1.6405,1.3211,1.3123,55.249,57.1863,68.6990,101.715,,66.8602,67.7796,0.0329,,,,,,,,26.6011,,26.6019,,0.6493,85.0175,,7.604,,2.1671E+03,,1.7475E-01,,8.1841,8.1856,0.6156,,19.231,35.406,,,,,,,,,,,,
CalCOFI,2007SR,028,29,2007_028u,18-Jul-2020 23:02:24,18-Jul-2020 15:02:24,33.25222,-118.24912,090.0 035.0,090.0,035.0,248.000,249.917,,8.2165,,8.2218,,8.2192,34.1796,,34.1798,34.1814,,34.1830,34.1814,1.2848,,1.3248,1.3190,2.3353,,1.6339,1.3119,1.3155,55.891,57.8565,69.1718,101.593,,66.5693,67.8706,0.0315,,,,,,,,26.6010,,26.6016,,0.6410,85.1931,,7.604,,2.1671E+03,,1.7040E-01,,8.1910,8.1963,0.6156,,19.458,35.373,,,,,,,,,,,,
CalCOFI,2007SR,028,29,2007_028u,18-Jul-2020 23:02:25,18-Jul-2020 15:02:25,33.25222,-118.24912,090.0 035.0,090.0,035.0,247.000,248.909,,8.2647,,8.2642,,8.2645,34.1792,,34.1794,34.1807,,34.1823,34.1809,1.2886,,1.3288,1.3230,2.3328,,1.6279,1.3037,1.3134,56.058,58.0308,69.2947,101.484,,66.3094,67.8021,0.0312,,,,,,,,26.5934,,26.5946,,0.6408,85.1970,,7.604,,2.1667E+03,,1.6710E-01,,8.2392,8.2387,0.6156,,19.537,35.368,,,,,,,,,,,,
CalCOFI,2007SR,028,29,2007_028u,18-Jul-2020 23:02:26,18-Jul-2020 15:02:26,33.25222,-118.24912,090.0 035.0,090.0,035.0,246.000,247.901,,8.2782,,8.2782,,8.2782,34.1782,,34.1784,34.1798,,34.1814,34.1799,1.2895,,1.3297,1.3239,2.3302,,1.6217,1.2951,1.3095,56.099,58.0736,69.3249,101.372,,66.0424,67.6837,0.0353,,,,,,,,26.5905,,26.5917,,0.6414,85.1839,,7.604,,2.1671E+03,,1.6554E-01,,8.2528,8.2528,0.6156,,19.556,35.340,,,,,,,,,,,,
CalCOFI,2007SR,028,29,2007_028u,18-Jul-2020 23:02:27,18-Jul-2020 15:02:27,33.25222,-118.24912,090.0 035.0,090.0,035.0,245.000,246.892,,8.2881,,8.2898,,8.2890,34.1788,,34.1790,34.1803,,34.1819,34.1805,1.2893,,1.3295,1.3237,2.3233,,1.6052,1.2724,1.2981,56.089,58.0632,69.3175,101.070,,65.3223,67.3199,0.0318,,,,,,,,26.5895,,26.5904,,0.6411,85.1900,,7.604,,2.1671E+03,,1.6811E-01,,8.2628,8.2645,0.6156,,19.557,35.244,,,,,,,,,,,,
CalCOFI,2007SR,028,29,2007_028u,18-Jul-2020 23:02:28,18-Jul-2020 15:02:28,33.25222,-118.24912,090.0 035.0,090.0,035.0,244.000,245.884,,8.3210,,8.3232,,8.3221,34.1823,,34.1825,34.1840,,34.1856,34.1841,1.2896,,1.3298,1.3240,2.3230,,1.6045,1.2714,1.2977,56.101,58.0757,69.3264,101.058,,65.2936,67.3100,0.0314,,,,,,,,26.5872,,26.5883,,0.6438,85.1332,,7.604,,2.1662E+03,,1.6794E-01,,8.2957,8.2979,0.6156,,19.577,35.266,,,,,,,,,,,,
CalCOFI,2007SR,028,29,2007_028u,18-Jul-2020 23:02:29,18-Jul-2020 15:02:29,33.25222,-118.24912,090.0 035.0,090.0,035.0,243.000,244.876,,8.3661,,8.3633,,8.3647,34.1871,,34.1873,34.1889,,34.1905,34.1889,1.2852,,1.3252,1.3194,2.3222,,1.6026,1.2688,1.2941,55.911,57.8774,69.1865,101.025,,65.2150,67.2008,0.0316,,,,,,,,26.5842,,26.5860,,0.6422,85.1662,,7.605,,2.1657E+03,,1.6873E-01,,8.3409,8.3381,0.6156,,19.530,35.288,,,,,,,,,,,,